Time,TemperatureF,DewpointF,PressureIn,WindDirection,WindDirectionDegrees,WindSpeedMPH,WindSpeedGustMPH,Humidity,HourlyPrecipIn,Conditions,Clouds,dailyrainin,SolarRadiationWatts/m^2,SoftwareType,DateUTC
2013-05-10 00:02:00,48.0,35.0,-100.00,NNE,14,2.0,3.0,61,0.00,,,0.00,5.000000,,2013-05-10 06:02:00,
2013-05-10 00:12:00,48.0,35.0,-100.00,NNE,14,2.0,3.0,61,0.00,,,0.00,5.000000,,2013-05-10 06:12:00,
2013-05-10 00:21:00,48.0,35.0,-100.00,NNE,14,2.0,3.0,61,0.00,,,0.00,5.000000,,2013-05-10 06:21:00,
2013-05-10 00:32:00,48.0,35.0,-100.00,NNE,14,2.0,3.0,61,0.00,,,0.00,5.000000,,2013-05-10 06:32:00,
2013-05-10 01:02:00,48.0,38.0,-100.00,NW,326,2.0,5.0,68,0.00,,,0.00,16.000000,,2013-05-10 07:02:00,
2013-05-10 01:12:00,48.0,38.0,-100.00,NW,326,2.0,5.0,68,0.00,,,0.00,16.000000,,2013-05-10 07:12:00,
2013-05-10 01:22:00,48.0,38.0,-100.00,NW,326,2.0,5.0,68,0.00,,,0.00,16.000000,,2013-05-10 07:22:00,
2013-05-10 01:31:00,48.0,38.0,-100.00,NW,326,2.0,5.0,68,0.00,,,0.00,16.000000,,2013-05-10 07:31:00,
2013-05-10 02:02:00,47.0,38.0,-100.00,WNW,296,2.0,3.0,71,0.00,,,0.00,7.000000,,2013-05-10 08:02:00,
2013-05-10 02:12:00,47.0,38.0,-100.00,WNW,296,2.0,3.0,71,0.00,,,0.00,7.000000,,2013-05-10 08:12:00,
2013-05-10 02:22:00,47.0,38.0,-100.00,WNW,296,2.0,3.0,71,0.00,,,0.00,7.000000,,2013-05-10 08:22:00,
2013-05-10 02:32:00,47.0,38.0,-100.00,WNW,296,2.0,3.0,71,0.00,,,0.00,7.000000,,2013-05-10 08:32:00,
2013-05-10 03:01:00,46.0,37.0,-100.00,West,271,4.0,4.0,70,0.00,,,0.00,7.000000,,2013-05-10 09:01:00,
2013-05-10 03:11:00,46.0,37.0,-100.00,West,271,4.0,4.0,70,0.00,,,0.00,7.000000,,2013-05-10 09:11:00,
2013-05-10 03:21:00,46.0,37.0,-100.00,West,271,4.0,4.0,70,0.00,,,0.00,7.000000,,2013-05-10 09:21:00,
2013-05-10 03:32:00,46.0,37.0,-100.00,West,271,4.0,4.0,70,0.00,,,0.00,7.000000,,2013-05-10 09:32:00,
2013-05-10 04:03:00,47.0,38.0,-100.00,West,273,3.0,7.0,70,0.00,,,0.00,9.000000,,2013-05-10 10:03:00,
2013-05-10 04:12:00,47.0,38.0,-100.00,West,273,3.0,7.0,70,0.00,,,0.00,9.000000,,2013-05-10 10:12:00,
2013-05-10 04:23:00,47.0,38.0,-100.00,West,273,3.0,7.0,70,0.00,,,0.00,9.000000,,2013-05-10 10:23:00,
2013-05-10 04:32:00,47.0,38.0,-100.00,West,273,3.0,7.0,70,0.00,,,0.00,9.000000,,2013-05-10 10:32:00,
2013-05-10 05:02:00,48.0,39.0,-100.00,WSW,245,3.0,11.0,71,0.00,,,0.00,13.000000,,2013-05-10 11:02:00,
2013-05-10 05:12:00,48.0,39.0,-100.00,WSW,245,3.0,11.0,71,0.00,,,0.00,13.000000,,2013-05-10 11:12:00,
2013-05-10 05:22:00,48.0,39.0,-100.00,WSW,245,3.0,11.0,71,0.00,,,0.00,13.000000,,2013-05-10 11:22:00,
2013-05-10 05:32:00,48.0,39.0,-100.00,WSW,245,3.0,11.0,71,0.00,,,0.00,13.000000,,2013-05-10 11:32:00,
2013-05-10 08:02:00,52.0,37.0,-100.00,WNW,296,7.0,20.0,56,-99.99,,,0.00,300.000000,,2013-05-10 14:02:00,
2013-05-10 08:11:00,52.0,37.0,-100.00,WNW,296,7.0,20.0,56,-99.99,,,0.00,300.000000,,2013-05-10 14:11:00,
2013-05-10 08:21:00,52.0,37.0,-100.00,WNW,296,7.0,20.0,56,-99.99,,,0.00,300.000000,,2013-05-10 14:21:00,
2013-05-10 08:32:00,52.0,37.0,-100.00,WNW,296,7.0,20.0,56,-99.99,,,0.00,300.000000,,2013-05-10 14:32:00,
2013-05-10 09:02:00,57.0,38.0,-100.00,NNE,23,2.0,13.0,48,0.00,,,0.00,592.000000,,2013-05-10 15:02:00,
2013-05-10 09:20:00,-999.0,-99.9,-100.00,NNE,23,2.0,13.0,48,0.00,,,0.00,592.000000,,2013-05-10 15:20:00,
2013-05-10 09:32:00,57.0,38.0,-100.00,NNE,23,2.0,13.0,48,0.00,,,0.00,592.000000,,2013-05-10 15:32:00,
2013-05-10 10:02:00,61.0,41.0,-100.00,ESE,123,4.0,8.0,48,0.00,,,0.00,707.000000,,2013-05-10 16:02:00,
2013-05-10 10:12:00,61.0,41.0,-100.00,ESE,123,4.0,8.0,48,0.00,,,0.00,707.000000,,2013-05-10 16:12:00,
2013-05-10 10:23:00,61.0,41.0,-100.00,ESE,123,4.0,8.0,48,0.00,,,0.00,707.000000,,2013-05-10 16:23:00,
2013-05-10 10:32:00,61.0,41.0,-100.00,ESE,123,4.0,8.0,48,0.00,,,0.00,707.000000,,2013-05-10 16:32:00,
2013-05-10 11:02:00,63.0,40.0,-100.00,ENE,65,5.0,14.0,42,0.00,,,0.00,533.000000,,2013-05-10 17:02:00,
2013-05-10 11:12:00,63.0,40.0,-100.00,ENE,65,5.0,14.0,42,0.00,,,0.00,533.000000,,2013-05-10 17:12:00,
2013-05-10 11:22:00,63.0,40.0,-100.00,ENE,65,5.0,14.0,42,0.00,,,0.00,533.000000,,2013-05-10 17:22:00,
2013-05-10 11:32:00,63.0,40.0,-100.00,ENE,65,5.0,14.0,42,0.00,,,0.00,533.000000,,2013-05-10 17:32:00,
2013-05-10 12:10:00,-999.0,-99.9,-100.00,West,276,5.0,16.0,45,0.00,,,0.00,304.000000,,2013-05-10 18:10:00,
2013-05-10 12:22:00,63.0,41.0,-100.00,West,276,5.0,16.0,45,0.00,,,0.00,304.000000,,2013-05-10 18:22:00,
2013-05-10 12:34:00,63.0,41.0,-100.00,West,276,5.0,16.0,45,0.00,,,0.00,304.000000,,2013-05-10 18:34:00,
2013-05-10 13:02:00,63.0,41.0,-100.00,East,93,6.0,12.0,45,0.00,,,0.00,23.000000,,2013-05-10 19:02:00,
2013-05-10 13:11:00,63.0,41.0,-100.00,East,93,6.0,12.0,45,0.00,,,0.00,23.000000,,2013-05-10 19:11:00,
2013-05-10 13:21:00,63.0,41.0,-100.00,East,93,6.0,12.0,45,0.00,,,0.00,23.000000,,2013-05-10 19:21:00,
2013-05-10 13:32:00,63.0,41.0,-100.00,East,93,6.0,12.0,45,0.00,,,0.00,23.000000,,2013-05-10 19:32:00,
2013-05-10 14:01:00,63.0,37.0,-100.00,ESE,102,4.0,17.0,38,0.00,,,0.00,75.000000,,2013-05-10 20:01:00,
2013-05-10 14:12:00,63.0,37.0,-100.00,ESE,102,4.0,17.0,38,0.00,,,0.00,75.000000,,2013-05-10 20:12:00,
2013-05-10 14:21:00,63.0,37.0,-100.00,ESE,102,4.0,17.0,38,0.00,,,0.00,75.000000,,2013-05-10 20:21:00,
2013-05-10 14:32:00,63.0,37.0,-100.00,ESE,102,4.0,17.0,38,0.00,,,0.00,75.000000,,2013-05-10 20:32:00,
2013-05-10 15:02:00,67.0,23.0,-100.00,NNE,27,9.0,13.0,19,0.00,,,0.00,49.000000,,2013-05-10 21:02:00,
2013-05-10 15:11:00,67.0,23.0,-100.00,NNE,27,9.0,13.0,19,0.00,,,0.00,49.000000,,2013-05-10 21:11:00,
2013-05-10 15:25:00,67.0,23.0,-100.00,NNE,27,9.0,13.0,19,0.00,,,0.00,49.000000,,2013-05-10 21:25:00,
2013-05-10 15:32:00,67.0,23.0,-100.00,NNE,27,9.0,13.0,19,0.00,,,0.00,49.000000,,2013-05-10 21:32:00,
2013-05-10 16:02:00,68.0,27.0,-100.00,NE,50,6.0,24.0,21,0.00,,,0.00,27.000000,,2013-05-10 22:02:00,
2013-05-10 16:13:00,68.0,27.0,-100.00,NE,50,6.0,24.0,21,0.00,,,0.00,27.000000,,2013-05-10 22:13:00,
2013-05-10 16:22:00,68.0,27.0,-100.00,NE,50,6.0,24.0,21,0.00,,,0.00,27.000000,,2013-05-10 22:22:00,
2013-05-10 16:32:00,68.0,27.0,-100.00,NE,50,6.0,24.0,21,0.00,,,0.00,27.000000,,2013-05-10 22:32:00,
2013-05-10 17:02:00,68.0,27.0,-100.00,NW,312,3.0,16.0,21,0.00,,,0.00,36.000000,,2013-05-10 23:02:00,
2013-05-10 17:12:00,68.0,27.0,-100.00,NW,312,3.0,16.0,21,0.00,,,0.00,36.000000,,2013-05-10 23:12:00,
2013-05-10 17:22:00,68.0,27.0,-100.00,NW,312,3.0,16.0,21,0.00,,,0.00,36.000000,,2013-05-10 23:22:00,
2013-05-10 17:32:00,68.0,27.0,-100.00,NW,312,3.0,16.0,21,0.00,,,0.00,36.000000,,2013-05-10 23:32:00,
2013-05-10 18:02:00,62.0,35.0,-100.00,NNW,332,16.0,23.0,37,0.00,,,0.00,0.000000,,2013-05-11 00:02:00,
2013-05-10 18:11:00,62.0,35.0,-100.00,NNW,332,16.0,23.0,37,0.00,,,0.00,0.000000,,2013-05-11 00:11:00,
2013-05-10 18:21:00,62.0,35.0,-100.00,NNW,332,16.0,23.0,37,0.00,,,0.00,0.000000,,2013-05-11 00:21:00,
2013-05-10 18:32:00,62.0,35.0,-100.00,NNW,332,16.0,23.0,37,0.00,,,0.00,0.000000,,2013-05-11 00:32:00,
2013-05-10 19:01:00,57.0,36.0,-100.00,NW,309,8.0,41.0,45,0.00,,,0.00,0.000000,,2013-05-11 01:01:00,
2013-05-10 19:11:00,57.0,36.0,-100.00,NW,309,8.0,41.0,45,0.00,,,0.00,0.000000,,2013-05-11 01:11:00,
2013-05-10 19:21:00,57.0,36.0,-100.00,NW,309,8.0,41.0,45,0.00,,,0.00,0.000000,,2013-05-11 01:21:00,
2013-05-10 19:32:00,57.0,36.0,-100.00,NW,309,8.0,41.0,45,0.00,,,0.00,0.000000,,2013-05-11 01:32:00,
2013-05-10 20:02:00,57.0,36.0,-100.00,NNW,331,6.0,19.0,45,0.00,,,0.00,5.000000,,2013-05-11 02:02:00,
2013-05-10 20:11:00,57.0,36.0,-100.00,NNW,331,6.0,19.0,45,0.00,,,0.00,5.000000,,2013-05-11 02:11:00,
2013-05-10 20:22:00,57.0,36.0,-100.00,NNW,331,6.0,19.0,45,0.00,,,0.00,5.000000,,2013-05-11 02:22:00,
2013-05-10 20:32:00,57.0,36.0,-100.00,NNW,331,6.0,19.0,45,0.00,,,0.00,5.000000,,2013-05-11 02:32:00,
2013-05-10 21:01:00,52.0,38.0,-100.00,North,354,5.0,17.0,58,0.00,,,0.00,0.000000,,2013-05-11 03:01:00,
2013-05-10 21:11:00,52.0,38.0,-100.00,North,354,5.0,17.0,58,0.00,,,0.00,0.000000,,2013-05-11 03:11:00,
2013-05-10 21:21:00,52.0,38.0,-100.00,North,354,5.0,17.0,58,0.00,,,0.00,0.000000,,2013-05-11 03:21:00,
2013-05-10 21:33:00,52.0,38.0,-100.00,North,354,5.0,17.0,58,0.00,,,0.00,0.000000,,2013-05-11 03:33:00,
2013-05-10 22:03:00,50.0,37.0,-100.00,NNW,336,3.0,9.0,61,0.00,,,0.00,0.000000,,2013-05-11 04:03:00,
2013-05-10 22:12:00,50.0,37.0,-100.00,NNW,336,3.0,9.0,61,0.00,,,0.00,0.000000,,2013-05-11 04:12:00,
2013-05-10 22:23:00,50.0,37.0,-100.00,NNW,336,3.0,9.0,61,0.00,,,0.00,0.000000,,2013-05-11 04:23:00,
2013-05-10 22:33:00,50.0,37.0,-100.00,NNW,336,3.0,9.0,61,0.00,,,0.00,0.000000,,2013-05-11 04:33:00,
2013-05-10 23:02:00,48.0,38.0,-100.00,NNW,343,5.0,11.0,67,0.00,,,0.00,0.000000,,2013-05-11 05:02:00,
2013-05-10 23:12:00,48.0,38.0,-100.00,NNW,343,5.0,11.0,67,0.00,,,0.00,0.000000,,2013-05-11 05:12:00,
2013-05-10 23:21:00,48.0,38.0,-100.00,NNW,343,5.0,11.0,67,0.00,,,0.00,0.000000,,2013-05-11 05:21:00,
2013-05-10 23:32:00,48.0,38.0,-100.00,NNW,343,5.0,11.0,67,0.00,,,0.00,0.000000,,2013-05-11 05:32:00,